,,Stat6,,Stat2,,Stat8,,Stat9,,Stat10,,Wind1,,Wind1,
time,status,PA1M_AVG,status,PR1M_SUM,status,RH1M_AVG,status,SR1M_AVG,status,TA1M_AVG,status,W1dAve1m,status,W1sAve1m,
2004-02-03, 00:00:00,VALID,917.279,VALID,0,VALID,97.1926,VALID,0,VALID,18.572,VALID,134,VALID,0.830602,
2004-02-03, 00:01:00,VALID,917.254,VALID,0,VALID,97.3591,VALID,0,VALID,18.5492,VALID,134,VALID,0.826172,
2004-02-03, 00:02:00,VALID,917.247,VALID,0,VALID,97.4214,VALID,0.0339617,VALID,18.5199,VALID,116,VALID,1.06177,
2004-02-03, 00:03:00,VALID,917.224,VALID,0,VALID,97.4596,VALID,0,VALID,18.5075,VALID,116,VALID,1.11261,
2004-02-03, 00:04:00,VALID,917.214,VALID,0,VALID,97.5715,VALID,-0.0339617,VALID,18.4752,VALID,121,VALID,0.90263,
2004-02-03, 00:05:00,VALID,917.211,VALID,0,VALID,97.6287,VALID,-0.0169808,VALID,18.4749,VALID,119,VALID,0.938616,
2004-02-03, 00:06:00,VALID,917.183,VALID,0,VALID,97.6783,VALID,-0.0169808,VALID,18.4687,VALID,124,VALID,1.0186,
2004-02-03, 00:07:00,VALID,917.177,VALID,0,VALID,97.5155,VALID,-0.0169808,VALID,18.456,VALID,121,VALID,1.1752,
2004-02-03, 00:08:00,VALID,917.166,VALID,0,VALID,97.3477,VALID,0,VALID,18.4627,VALID,116,VALID,1.13778,
2004-02-03, 00:09:00,VALID,917.155,VALID,0,VALID,97.026,VALID,-0.0169808,VALID,18.4461,VALID,114,VALID,0.959985,
2004-02-03, 00:10:00,VALID,917.145,VALID,0,VALID,96.8162,VALID,-0.0169808,VALID,18.45,VALID,109,VALID,0.752734,
2004-02-03, 00:11:00,VALID,917.146,VALID,0,VALID,96.441,VALID,0,VALID,18.4463,VALID,124,VALID,0.851376,
2004-02-03, 00:12:00,VALID,917.151,VALID,0,VALID,96.3177,VALID,0,VALID,18.4586,VALID,124,VALID,0.780878,
2004-02-03, 00:13:00,VALID,917.136,VALID,0,VALID,96.0964,VALID,0,VALID,18.4752,VALID,115,VALID,0.77753,
2004-02-03, 00:14:00,VALID,917.131,VALID,0,VALID,95.7353,VALID,-0.0169808,VALID,18.4719,VALID,111,VALID,0.724516,
2004-02-03, 00:15:00,VALID,917.119,VALID,0,VALID,95.2801,VALID,0,VALID,18.4848,VALID,111,VALID,0.717416,
2004-02-03, 00:16:00,VALID,917.114,VALID,0,VALID,94.896,VALID,-0.0339617,VALID,18.4978,VALID,109,VALID,0.688939,
2004-02-03, 00:17:00,VALID,917.102,VALID,0,VALID,94.2628,VALID,0,VALID,18.5176,VALID,107,VALID,0.642987,
2004-02-03, 00:18:00,VALID,917.103,VALID,0,VALID,94.4688,VALID,0,VALID,18.543,VALID,106,VALID,0.496094,
2004-02-03, 00:19:00,VALID,917.109,VALID,0,VALID,94.7841,VALID,-0.0169808,VALID,18.5718,VALID,92,VALID,0.412059,
2004-02-03, 00:20:00,VALID,917.112,VALID,0,VALID,94.526,VALID,0,VALID,18.5623,VALID,92,VALID,0.605208,
2004-02-03, 00:21:00,VALID,917.102,VALID,0,VALID,93.9843,VALID,0,VALID,18.5264,VALID,92,VALID,0.653906,
2004-02-03, 00:22:00,VALID,917.09,VALID,0,VALID,93.7452,VALID,-0.0169808,VALID,18.5303,VALID,100,VALID,0.889172,
2004-02-03, 00:23:00,VALID,917.078,VALID,0,VALID,93.7681,VALID,0,VALID,18.5469,VALID,102,VALID,0.941211,
2004-02-03, 00:24:00,VALID,917.083,VALID,0,VALID,93.4286,VALID,0,VALID,18.5589,VALID,96,VALID,1.03105,
2004-02-03, 00:25:00,VALID,917.061,VALID,0,VALID,93.3625,VALID,-0.0169808,VALID,18.5757,VALID,101,VALID,1.04667,
2004-02-03, 00:26:00,VALID,917.047,VALID,0,VALID,93.3053,VALID,0,VALID,18.5819,VALID,103,VALID,0.987282,
2004-02-03, 00:27:00,VALID,917.032,VALID,0,VALID,93.2569,VALID,0,VALID,18.5852,VALID,108,VALID,0.98473,
2004-02-03, 00:28:00,VALID,917.026,VALID,0,VALID,93.6346,VALID,-0.0339617,VALID,18.608,VALID,112,VALID,0.960007,
2004-02-03, 00:29:00,VALID,917.003,VALID,0,VALID,94.1496,VALID,-0.0339617,VALID,18.6013,VALID,125,VALID,0.918713,
2004-02-03, 00:30:00,VALID,916.997,VALID,0,VALID,94.5705,VALID,0,VALID,18.5886,VALID,128,VALID,0.86452,
2004-02-03, 00:31:00,VALID,916.987,VALID,0,VALID,95.0359,VALID,-0.0339617,VALID,18.5663,VALID,120,VALID,1.16353,
2004-02-03, 00:32:00,VALID,916.983,VALID,0,VALID,95.3907,VALID,0,VALID,18.5434,VALID,118,VALID,0.825521,
2004-02-03, 00:33:00,VALID,916.969,VALID,0,VALID,95.5636,VALID,-0.0169808,VALID,18.5268,VALID,114,VALID,0.886265,
2004-02-03, 00:34:00,VALID,916.959,VALID,0,VALID,95.8001,VALID,0,VALID,18.4846,VALID,114,VALID,0.960193,
2004-02-03, 00:35:00,VALID,916.941,VALID,0,VALID,96.1549,VALID,0,VALID,18.459,VALID,120,VALID,0.888477,
2004-02-03, 00:36:00,VALID,916.933,VALID,0,VALID,96.4398,VALID,-0.0169808,VALID,18.4332,VALID,125,VALID,0.944767,
2004-02-03, 00:37:00,VALID,916.926,VALID,0,VALID,96.6089,VALID,0.0169808,VALID,18.4108,VALID,116,VALID,0.852983,
2004-02-03, 00:38:00,VALID,916.91,VALID,0,VALID,96.7831,VALID,0,VALID,18.3721,VALID,110,VALID,0.639695,
2004-02-03, 00:39:00,VALID,916.891,VALID,0,VALID,96.8543,VALID,-0.0339617,VALID,18.3594,VALID,102,VALID,0.888247,
2004-02-03, 00:40:00,VALID,916.882,VALID,0,VALID,96.8785,VALID,-0.0169808,VALID,18.3301,VALID,100,VALID,0.896723,
2004-02-03, 00:41:00,VALID,916.877,VALID,0,VALID,96.9624,VALID,0,VALID,18.3202,VALID,98,VALID,0.976918,
2004-02-03, 00:42:00,VALID,916.878,VALID,0,VALID,96.8263,VALID,0,VALID,18.3137,VALID,97,VALID,0.760174,
2004-02-03, 00:43:00,VALID,916.876,VALID,0,VALID,96.483,VALID,0,VALID,18.3142,VALID,94,VALID,0.93892,
2004-02-03, 00:44:00,VALID,916.875,VALID,0,VALID,95.7773,VALID,0.0169808,VALID,18.3174,VALID,102,VALID,1.20132,
2004-02-03, 00:45:00,VALID,916.883,VALID,0,VALID,95.4441,VALID,0,VALID,18.3458,VALID,102,VALID,1.03872,
2004-02-03, 00:46:00,VALID,916.882,VALID,0,VALID,95.0499,VALID,0,VALID,18.3855,VALID,103,VALID,1.20185,
2004-02-03, 00:47:00,VALID,916.899,VALID,0,VALID,95.088,VALID,-0.0169808,VALID,18.4108,VALID,102,VALID,1.05596,
2004-02-03, 00:48:00,VALID,916.906,VALID,0,VALID,95.0868,VALID,-0.0509425,VALID,18.4468,VALID,108,VALID,1.18841,
2004-02-03, 00:49:00,VALID,916.91,VALID,0,VALID,94.9634,VALID,-0.0169808,VALID,18.43,VALID,112,VALID,0.949929,
2004-02-03, 00:50:00,VALID,916.93,VALID,0,VALID,94.8197,VALID,-0.0509425,VALID,18.4083,VALID,107,VALID,0.960938,
2004-02-03, 00:51:00,VALID,916.928,VALID,0,VALID,94.7943,VALID,-0.0509425,VALID,18.3792,VALID,112,VALID,1.15486,
2004-02-03, 00:52:00,VALID,916.937,VALID,0,VALID,94.9761,VALID,-0.0509425,VALID,18.3495,VALID,125,VALID,1.42368,
2004-02-03, 00:53:00,VALID,916.935,VALID,0,VALID,94.7434,VALID,-0.0169808,VALID,18.34,VALID,125,VALID,1.54688,
2004-02-03, 00:54:00,VALID,916.945,VALID,0,VALID,94.8935,VALID,-0.0509425,VALID,18.3566,VALID,119,VALID,1.43676,
2004-02-03, 00:55:00,VALID,916.938,VALID,0,VALID,95.0766,VALID,-0.0339617,VALID,18.3559,VALID,111,VALID,1.3443,
2004-02-03, 00:56:00,VALID,916.923,VALID,0,VALID,95.0944,VALID,-0.0169808,VALID,18.3499,VALID,104,VALID,0.998183,
2004-02-03, 00:57:00,VALID,916.923,VALID,0,VALID,95.0283,VALID,-0.0849042,VALID,18.3338,VALID,116,VALID,1.42765,
2004-02-03, 00:58:00,VALID,916.917,VALID,0,VALID,94.9304,VALID,-0.0679233,VALID,18.3144,VALID,124,VALID,1.36319,
2004-02-03, 00:59:00,VALID,916.905,VALID,0,VALID,95.0995,VALID,-0.0339617,VALID,18.3269,VALID,119,VALID,1.4401,
2004-02-03, 01:00:00,VALID,916.885,VALID,0,VALID,95.3716,VALID,-0.0679233,VALID,18.3499,VALID,117,VALID,1.20868,
2004-02-03, 01:01:00,VALID,916.869,VALID,0,VALID,95.687,VALID,-0.101885,VALID,18.3725,VALID,116,VALID,1.29388,
2004-02-03, 01:02:00,VALID,916.848,VALID,0,VALID,95.5954,VALID,-0.0509425,VALID,18.3631,VALID,105,VALID,1.08975,
2004-02-03, 01:03:00,VALID,916.82,VALID,0,VALID,95.5267,VALID,-0.0509425,VALID,18.3474,VALID,90,VALID,0.942154,
2004-02-03, 01:04:00,VALID,916.79,VALID,0,VALID,95.1745,VALID,-0.0849042,VALID,18.3177,VALID,86,VALID,0.905208,
2004-02-03, 01:05:00,VALID,916.766,VALID,0,VALID,94.5438,VALID,-0.0679233,VALID,18.3011,VALID,108,VALID,0.962891,
2004-02-03, 01:06:00,VALID,916.734,VALID,0,VALID,94.259,VALID,-0.0169808,VALID,18.3209,VALID,115,VALID,1.14063,
2004-02-03, 01:07:00,VALID,916.722,VALID,0,VALID,94.1178,VALID,-0.0339617,VALID,18.3564,VALID,110,VALID,1.0665,
2004-02-03, 01:08:00,VALID,916.7,VALID,0,VALID,93.5303,VALID,-0.0679233,VALID,18.3596,VALID,113,VALID,0.860647,
2004-02-03, 01:09:00,VALID,916.677,VALID,0,VALID,93.379,VALID,-0.0339617,VALID,18.3792,VALID,112,VALID,0.790153,
2004-02-03, 01:10:00,VALID,916.664,VALID,0,VALID,91.9688,VALID,-0.0509425,VALID,18.3889,VALID,113,VALID,1.0348,
2004-02-03, 01:11:00,VALID,916.635,VALID,0,VALID,91.0736,VALID,-0.0679233,VALID,18.4205,VALID,102,VALID,0.840774,
2004-02-03, 01:12:00,VALID,916.616,VALID,0,VALID,90.1466,VALID,-0.0339617,VALID,18.4791,VALID,112,VALID,0.93378,
2004-02-03, 01:13:00,VALID,916.581,VALID,0,VALID,90.2992,VALID,-0.0509425,VALID,18.5538,VALID,129,VALID,0.822798,
2004-02-03, 01:14:00,VALID,916.569,VALID,0,VALID,91.5759,VALID,-0.0849042,VALID,18.6285,VALID,138,VALID,0.645089,
2004-02-03, 01:15:00,VALID,916.562,VALID,0,VALID,92.3223,VALID,-0.0849042,VALID,18.6348,VALID,137,VALID,0.668064,
2004-02-03, 01:16:00,VALID,916.543,VALID,0,VALID,92.4177,VALID,-0.0849042,VALID,18.5732,VALID,134,VALID,0.75093,
2004-02-03, 01:17:00,VALID,916.551,VALID,0,VALID,92.3312,VALID,-0.0339617,VALID,18.5019,VALID,134,VALID,0.703311,
2004-02-03, 01:18:00,VALID,916.534,VALID,0,VALID,92.4304,VALID,-0.0169808,VALID,18.4463,VALID,134,VALID,0.744731,
2004-02-03, 01:19:00,VALID,916.533,VALID,0,VALID,92.3503,VALID,-0.0339617,VALID,18.4177,VALID,134,VALID,0.81686,
2004-02-03, 01:20:00,VALID,916.528,VALID,0,VALID,91.7488,VALID,-0.0679233,VALID,18.382,VALID,144,VALID,0.950838,
2004-02-03, 01:21:00,VALID,916.523,VALID,0,VALID,91.7641,VALID,-0.0339617,VALID,18.3958,VALID,149,VALID,0.949041,
2004-02-03, 01:22:00,VALID,916.502,VALID,0,VALID,91.8531,VALID,-0.0509425,VALID,18.418,VALID,143,VALID,1.06868,
2004-02-03, 01:23:00,VALID,916.496,VALID,0,VALID,91.806,VALID,-0.0509425,VALID,18.4371,VALID,144,VALID,1.02634,
2004-02-03, 01:24:00,VALID,916.49,VALID,0,VALID,92.1049,VALID,-0.0849042,VALID,18.4696,VALID,139,VALID,0.826451,
2004-02-03, 01:25:00,VALID,916.494,VALID,0,VALID,92.3528,VALID,-0.0169808,VALID,18.456,VALID,128,VALID,0.970567,
2004-02-03, 01:26:00,VALID,916.486,VALID,0,VALID,92.6377,VALID,-0.0679233,VALID,18.4664,VALID,128,VALID,0.990916,
2004-02-03, 01:27:00,VALID,916.483,VALID,0,VALID,92.8526,VALID,-0.0509425,VALID,18.4507,VALID,133,VALID,0.920573,
2004-02-03, 01:28:00,VALID,916.458,VALID,0,VALID,93.0878,VALID,-0.0169808,VALID,18.4272,VALID,129,VALID,0.817264,
2004-02-03, 01:29:00,VALID,916.452,VALID,0,VALID,93.3091,VALID,0.0509425,VALID,18.3942,VALID,127,VALID,1.08085,
2004-02-03, 01:30:00,VALID,916.438,VALID,0,VALID,93.4935,VALID,0.0509425,VALID,18.3612,VALID,125,VALID,0.866122,
2004-02-03, 01:31:00,VALID,916.415,VALID,0,VALID,93.5926,VALID,0.0509425,VALID,18.3419,VALID,102,VALID,0.542468,
2004-02-03, 01:32:00,VALID,916.397,VALID,0,VALID,93.7732,VALID,0.0679233,VALID,18.3163,VALID,101,VALID,0.772485,
2004-02-03, 01:33:00,VALID,916.379,VALID,0,VALID,93.9703,VALID,0.0339617,VALID,18.2812,VALID,94,VALID,0.600713,
2004-02-03, 01:34:00,VALID,916.372,VALID,0,VALID,94.2157,VALID,0.0679233,VALID,18.2524,VALID,79,VALID,0.84375,
2004-02-03, 01:35:00,VALID,916.348,VALID,0,VALID,94.3696,VALID,0.0339617,VALID,18.2098,VALID,75,VALID,1.00937,
2004-02-03, 01:36:00,VALID,916.344,VALID,0,VALID,94.0059,VALID,0.0679233,VALID,18.2003,VALID,88,VALID,0.990412,
2004-02-03, 01:37:00,VALID,916.323,VALID,0,VALID,93.3332,VALID,0.0849042,VALID,18.1936,VALID,92,VALID,1.11223,
2004-02-03, 01:38:00,VALID,916.315,VALID,0,VALID,92.5487,VALID,0.0849042,VALID,18.2194,VALID,108,VALID,1.12671,
2004-02-03, 01:39:00,VALID,916.303,VALID,0,VALID,92.2727,VALID,0.0849042,VALID,18.2743,VALID,104,VALID,1.14524,
2004-02-03, 01:40:00,VALID,916.299,VALID,0,VALID,91.6153,VALID,0.0169808,VALID,18.2905,VALID,106,VALID,1.1088,
2004-02-03, 01:41:00,VALID,916.293,VALID,0,VALID,91.2898,VALID,0.0339617,VALID,18.323,VALID,111,VALID,1.13148,
2004-02-03, 01:42:00,VALID,916.279,VALID,0,VALID,91.1562,VALID,0.0679233,VALID,18.358,VALID,102,VALID,1.07127,
2004-02-03, 01:43:00,VALID,916.27,VALID,0,VALID,91.1842,VALID,0.0679233,VALID,18.3716,VALID,106,VALID,1.26992,
2004-02-03, 01:44:00,VALID,916.267,VALID,0,VALID,90.7697,VALID,0,VALID,18.3728,VALID,102,VALID,1.34077,
2004-02-03, 01:45:00,VALID,916.252,VALID,0,VALID,90.4887,VALID,0,VALID,18.382,VALID,95,VALID,1.0593,
2004-02-03, 01:46:00,VALID,916.243,VALID,0,VALID,90.4441,VALID,-0.0339617,VALID,18.4016,VALID,96,VALID,1.14276,
2004-02-03, 01:47:00,VALID,916.238,VALID,0,VALID,90.4556,VALID,0.0169808,VALID,18.4212,VALID,102,VALID,0.972656,
2004-02-03, 01:48:00,VALID,916.209,VALID,0,VALID,90.846,VALID,0,VALID,18.4237,VALID,102,VALID,1.00266,
2004-02-03, 01:49:00,VALID,916.196,VALID,0,VALID,91.3292,VALID,0.0169808,VALID,18.4272,VALID,104,VALID,0.936047,
2004-02-03, 01:50:00,VALID,916.178,VALID,0,VALID,91.9485,VALID,0,VALID,18.4078,VALID,105,VALID,0.929332,
2004-02-03, 01:51:00,VALID,916.15,VALID,0,VALID,92.5029,VALID,0,VALID,18.3785,VALID,105,VALID,0.71596,
2004-02-03, 01:52:00,VALID,916.15,VALID,0,VALID,93.1361,VALID,0,VALID,18.3527,VALID,105,VALID,0.83505,
2004-02-03, 01:53:00,VALID,916.122,VALID,0,VALID,93.6549,VALID,-0.0169808,VALID,18.3174,VALID,90,VALID,0.775476,
2004-02-03, 01:54:00,VALID,916.111,VALID,0,VALID,93.9805,VALID,0,VALID,18.2916,VALID,90,VALID,0.944912,
2004-02-03, 01:55:00,VALID,916.088,VALID,0,VALID,94.3887,VALID,0,VALID,18.2593,VALID,95,VALID,0.949505,
2004-02-03, 01:56:00,VALID,916.08,VALID,0,VALID,94.4967,VALID,0,VALID,18.2464,VALID,103,VALID,0.92793,
2004-02-03, 01:57:00,VALID,916.083,VALID,0,VALID,94.1038,VALID,0,VALID,18.2337,VALID,101,VALID,0.827398,
2004-02-03, 01:58:00,VALID,916.069,VALID,0,VALID,93.9601,VALID,0,VALID,18.2335,VALID,97,VALID,0.786966,
2004-02-03, 01:59:00,VALID,916.069,VALID,0,VALID,94.4014,VALID,-0.0169808,VALID,18.2529,VALID,79,VALID,0.791969,
2004-02-03, 02:00:00,VALID,916.074,VALID,0,VALID,94.5819,VALID,0,VALID,18.2307,VALID,63,VALID,0.75142,
2004-02-03, 02:01:00,VALID,916.078,VALID,0,VALID,94.8833,VALID,0,VALID,18.1528,VALID,61,VALID,0.743945,
2004-02-03, 02:02:00,VALID,916.066,VALID,0,VALID,95.2279,VALID,-0.0169808,VALID,18.1014,VALID,62,VALID,0.796693,
2004-02-03, 02:03:00,VALID,916.05,VALID,0,VALID,95.1885,VALID,0,VALID,18.0596,VALID,71,VALID,0.977834,
2004-02-03, 02:04:00,VALID,916.043,VALID,0,VALID,95.2546,VALID,0,VALID,18.0239,VALID,84,VALID,0.924253,
2004-02-03, 02:05:00,VALID,916.038,VALID,0,VALID,95.0715,VALID,0,VALID,17.9946,VALID,94,VALID,1.07156,
2004-02-03, 02:06:00,VALID,916.01,VALID,0,VALID,94.5107,VALID,0,VALID,18.0077,VALID,105,VALID,1.27877,
2004-02-03, 02:07:00,VALID,915.986,VALID,0,VALID,93.8317,VALID,0,VALID,18.0663,VALID,106,VALID,1.21016,
2004-02-03, 02:08:00,VALID,915.97,VALID,0,VALID,93.5202,VALID,0,VALID,18.1332,VALID,103,VALID,1.09756,
2004-02-03, 02:09:00,VALID,915.93,VALID,0,VALID,93.3676,VALID,0.0169808,VALID,18.1818,VALID,112,VALID,1.01669,
2004-02-03, 02:10:00,VALID,915.927,VALID,0,VALID,93.1819,VALID,0,VALID,18.2012,VALID,119,VALID,1.1814,
2004-02-03, 02:11:00,VALID,915.896,VALID,0,VALID,93.1756,VALID,0,VALID,18.2245,VALID,117,VALID,1.04278,
2004-02-03, 02:12:00,VALID,915.882,VALID,0,VALID,92.7368,VALID,-0.0169808,VALID,18.2107,VALID,109,VALID,0.978468,
2004-02-03, 02:13:00,VALID,915.851,VALID,0,VALID,92.6784,VALID,0.0169808,VALID,18.2402,VALID,105,VALID,0.944949,
2004-02-03, 02:14:00,VALID,915.827,VALID,0,VALID,93.0153,VALID,0.0339617,VALID,18.2632,VALID,118,VALID,0.787202,
2004-02-03, 02:15:00,VALID,915.801,VALID,0,VALID,93.5685,VALID,0.0169808,VALID,18.2335,VALID,123,VALID,1.11871,
2004-02-03, 02:16:00,VALID,915.779,VALID,0,VALID,94.0937,VALID,0,VALID,18.195,VALID,125,VALID,1.24325,
2004-02-03, 02:17:00,VALID,915.768,VALID,0,VALID,94.54,VALID,0,VALID,18.1438,VALID,119,VALID,1.20149,
2004-02-03, 02:18:00,VALID,915.748,VALID,0,VALID,95.1147,VALID,0,VALID,18.0981,VALID,119,VALID,1.29571,
2004-02-03, 02:19:00,VALID,915.729,VALID,0,VALID,95.5204,VALID,0,VALID,18.0693,VALID,114,VALID,1.33363,
2004-02-03, 02:20:00,VALID,915.719,VALID,0,VALID,95.4199,VALID,0,VALID,18.0301,VALID,112,VALID,1.21094,
2004-02-03, 02:21:00,VALID,915.703,VALID,0,VALID,95.3818,VALID,-0.0169808,VALID,18.0082,VALID,110,VALID,1.35728,
2004-02-03, 02:22:00,VALID,915.678,VALID,0,VALID,95.322,VALID,-0.0169808,VALID,18.0179,VALID,110,VALID,1.28361,
2004-02-03, 02:23:00,VALID,915.671,VALID,0,VALID,95.2355,VALID,0,VALID,18.0013,VALID,108,VALID,1.35652,
2004-02-03, 02:24:00,VALID,915.669,VALID,0,VALID,95.0028,VALID,0,VALID,18.0213,VALID,94,VALID,1.15039,
2004-02-03, 02:25:00,VALID,915.663,VALID,0,VALID,94.9965,VALID,-0.0169808,VALID,18.0504,VALID,124,VALID,1.15606,
2004-02-03, 02:26:00,VALID,915.671,VALID,0,VALID,95.0702,VALID,0.0339617,VALID,18.0654,VALID,116,VALID,1.29549,
2004-02-03, 02:27:00,VALID,915.67,VALID,0,VALID,95.2406,VALID,0.0169808,VALID,18.0917,VALID,121,VALID,1.43694,
2004-02-03, 02:28:00,VALID,915.662,VALID,0,VALID,95.3551,VALID,0.0169808,VALID,18.1078,VALID,128,VALID,1.34468,
2004-02-03, 02:29:00,VALID,915.663,VALID,0,VALID,95.584,VALID,-0.0169808,VALID,18.1115,VALID,129,VALID,1.65949,
2004-02-03, 02:30:00,VALID,915.657,VALID,0,VALID,96.0239,VALID,0,VALID,18.1272,VALID,129,VALID,1.86387,
2004-02-03, 02:31:00,VALID,915.651,VALID,0,VALID,96.3953,VALID,0.0339617,VALID,18.124,VALID,132,VALID,1.74162,
2004-02-03, 02:32:00,VALID,915.659,VALID,0,VALID,96.5657,VALID,0,VALID,18.0852,VALID,124,VALID,1.27326,
2004-02-03, 02:33:00,VALID,915.656,VALID,0,VALID,96.7017,VALID,0,VALID,18.0599,VALID,124,VALID,1.06231,
2004-02-03, 02:34:00,VALID,915.646,VALID,0,VALID,96.853,VALID,0.0169808,VALID,18.0433,VALID,117,VALID,1.16823,
2004-02-03, 02:35:00,VALID,915.644,VALID,0,VALID,96.7093,VALID,0,VALID,18.005,VALID,103,VALID,1.18877,
2004-02-03, 02:36:00,VALID,915.62,VALID,0,VALID,96.6598,VALID,0.0169808,VALID,17.9752,VALID,93,VALID,1.14135,
2004-02-03, 02:37:00,VALID,915.628,VALID,0,VALID,96.5275,VALID,0.0169808,VALID,17.9662,VALID,82,VALID,1.03866,
2004-02-03, 02:38:00,VALID,915.625,VALID,0,VALID,96.2554,VALID,0,VALID,17.9395,VALID,77,VALID,1.00586,
2004-02-03, 02:39:00,VALID,915.626,VALID,0,VALID,96.2452,VALID,-0.0169808,VALID,17.9626,VALID,67,VALID,0.880451,
2004-02-03, 02:40:00,VALID,915.636,VALID,0,VALID,95.8459,VALID,0,VALID,17.966,VALID,77,VALID,1.10398,
2004-02-03, 02:41:00,VALID,915.63,VALID,0,VALID,95.3157,VALID,0,VALID,17.9787,VALID,79,VALID,1.09966,
2004-02-03, 02:42:00,VALID,915.641,VALID,0,VALID,94.6519,VALID,0,VALID,18.014,VALID,84,VALID,0.992374,
2004-02-03, 02:43:00,VALID,915.646,VALID,0,VALID,93.8597,VALID,-0.0509425,VALID,18.0859,VALID,92,VALID,1.15174,
2004-02-03, 02:44:00,VALID,915.65,VALID,0,VALID,93.4591,VALID,-0.0849042,VALID,18.1565,VALID,88,VALID,1.11161,
2004-02-03, 02:45:00,VALID,915.648,VALID,0,VALID,93.0878,VALID,-0.0679233,VALID,18.2247,VALID,100,VALID,1.41211,
2004-02-03, 02:46:00,VALID,915.644,VALID,0,VALID,92.9454,VALID,-0.0849042,VALID,18.2695,VALID,99,VALID,1.13789,
2004-02-03, 02:47:00,VALID,915.635,VALID,0,VALID,93.0929,VALID,-0.101885,VALID,18.2988,VALID,95,VALID,1.09902,
2004-02-03, 02:48:00,VALID,915.628,VALID,0,VALID,93.0535,VALID,-0.0849042,VALID,18.3057,VALID,112,VALID,1.39098,
2004-02-03, 02:49:00,VALID,915.622,VALID,0,VALID,93.1438,VALID,-0.101885,VALID,18.2992,VALID,108,VALID,1.2935,
2004-02-03, 02:50:00,VALID,915.6,VALID,0,VALID,93.1196,VALID,-0.101885,VALID,18.296,VALID,122,VALID,1.39008,
2004-02-03, 02:51:00,VALID,915.595,VALID,0,VALID,93.1272,VALID,-0.0849042,VALID,18.2826,VALID,124,VALID,1.42816,
2004-02-03, 02:52:00,VALID,915.58,VALID,0,VALID,93.421,VALID,-0.101885,VALID,18.2796,VALID,114,VALID,1.05043,
2004-02-03, 02:53:00,VALID,915.579,VALID,0,VALID,93.6956,VALID,-0.101885,VALID,18.2637,VALID,116,VALID,1.15217,
2004-02-03, 02:54:00,VALID,915.562,VALID,0,VALID,93.9563,VALID,-0.0679233,VALID,18.2376,VALID,127,VALID,1.56318,
2004-02-03, 02:55:00,VALID,915.547,VALID,0,VALID,94.3899,VALID,-0.0679233,VALID,18.2215,VALID,130,VALID,1.38154,
2004-02-03, 02:56:00,VALID,915.526,VALID,0,VALID,94.5896,VALID,-0.0679233,VALID,18.2054,VALID,128,VALID,1.53516,
2004-02-03, 02:57:00,VALID,915.521,VALID,0,VALID,94.7256,VALID,-0.0849042,VALID,18.1825,VALID,133,VALID,1.42188,
2004-02-03, 02:58:00,VALID,915.507,VALID,0,VALID,94.821,VALID,-0.101885,VALID,18.183,VALID,130,VALID,1.64735,
2004-02-03, 02:59:00,VALID,915.491,VALID,0,VALID,95.0372,VALID,-0.101885,VALID,18.1959,VALID,126,VALID,1.38281,
2004-02-03, 03:00:00,VALID,915.489,VALID,0,VALID,95.1745,VALID,-0.101885,VALID,18.1828,VALID,120,VALID,1.30487,
2004-02-03, 03:01:00,VALID,915.474,VALID,0,VALID,95.1135,VALID,-0.0849042,VALID,18.1599,VALID,116,VALID,1.15538,
2004-02-03, 03:02:00,VALID,915.472,VALID,0,VALID,94.9761,VALID,-0.0509425,VALID,18.1438,VALID,114,VALID,1.11551,
2004-02-03, 03:03:00,VALID,915.465,VALID,0,VALID,94.9609,VALID,-0.101885,VALID,18.1638,VALID,104,VALID,1.03496,
2004-02-03, 03:04:00,VALID,915.454,VALID,0,VALID,94.9507,VALID,-0.0679233,VALID,18.1569,VALID,112,VALID,1.00781,
2004-02-03, 03:05:00,VALID,915.435,VALID,0,VALID,94.8998,VALID,-0.0679233,VALID,18.1502,VALID,108,VALID,1.14546,
2004-02-03, 03:06:00,VALID,915.43,VALID,0,VALID,94.8655,VALID,-0.0849042,VALID,18.1599,VALID,110,VALID,1.20592,
2004-02-03, 03:07:00,VALID,915.411,VALID,0,VALID,94.8057,VALID,-0.101885,VALID,18.1701,VALID,99,VALID,0.946837,
2004-02-03, 03:08:00,VALID,915.387,VALID,0,VALID,94.7206,VALID,-0.0849042,VALID,18.1701,VALID,94,VALID,1.0552,
2004-02-03, 03:09:00,VALID,915.376,VALID,0,VALID,94.6824,VALID,-0.0849042,VALID,18.1858,VALID,102,VALID,0.842478,
2004-02-03, 03:10:00,VALID,915.371,VALID,0,VALID,94.6989,VALID,-0.0849042,VALID,18.1987,VALID,88,VALID,0.92294,
2004-02-03, 03:11:00,VALID,915.376,VALID,0,VALID,94.6506,VALID,-0.0339617,VALID,18.2019,VALID,86,VALID,0.835069,
2004-02-03, 03:12:00,VALID,915.372,VALID,0,VALID,94.6125,VALID,-0.0339617,VALID,18.2019,VALID,102,VALID,1.18652,
2004-02-03, 03:13:00,VALID,915.366,VALID,0,VALID,94.6493,VALID,-0.0169808,VALID,18.2074,VALID,100,VALID,1.11012,
2004-02-03, 03:14:00,VALID,915.371,VALID,0,VALID,94.6608,VALID,0.0169808,VALID,18.2001,VALID,95,VALID,0.961128,
2004-02-03, 03:15:00,VALID,915.383,VALID,0,VALID,94.6646,VALID,0.0339617,VALID,18.2137,VALID,94,VALID,0.843941,
2004-02-03, 03:16:00,VALID,915.374,VALID,0,VALID,94.7358,VALID,0.0169808,VALID,18.1936,VALID,86,VALID,1.01083,
2004-02-03, 03:17:00,VALID,915.367,VALID,0,VALID,94.7943,VALID,0.0679233,VALID,18.1973,VALID,76,VALID,0.645349,
2004-02-03, 03:18:00,VALID,915.367,VALID,0,VALID,94.9507,VALID,0.0509425,VALID,18.1779,VALID,69,VALID,1.006,
2004-02-03, 03:19:00,VALID,915.357,VALID,0,VALID,95.0105,VALID,0.0339617,VALID,18.1519,VALID,74,VALID,1.07868,
2004-02-03, 03:20:00,VALID,915.358,VALID,0,VALID,94.7969,VALID,0.0339617,VALID,18.1291,VALID,76,VALID,1.02307,
2004-02-03, 03:21:00,VALID,915.367,VALID,0,VALID,94.5769,VALID,0.0169808,VALID,18.1233,VALID,71,VALID,0.969477,
2004-02-03, 03:22:00,VALID,915.357,VALID,0,VALID,94.4141,VALID,0.0339617,VALID,18.1168,VALID,85,VALID,0.975497,
2004-02-03, 03:23:00,VALID,915.342,VALID,0,VALID,94.2958,VALID,0.0169808,VALID,18.1037,VALID,94,VALID,0.97904,
2004-02-03, 03:24:00,VALID,915.342,VALID,0,VALID,94.2513,VALID,-0.0169808,VALID,18.1332,VALID,102,VALID,1.06975,
2004-02-03, 03:25:00,VALID,915.333,VALID,0,VALID,93.4032,VALID,0.0169808,VALID,18.127,VALID,89,VALID,1.11787,
2004-02-03, 03:26:00,VALID,915.329,VALID,0,VALID,92.7254,VALID,0.0169808,VALID,18.1459,VALID,92,VALID,1.00133,
2004-02-03, 03:27:00,VALID,915.317,VALID,0,VALID,93.1857,VALID,0.0339617,VALID,18.1717,VALID,108,VALID,1.18733,
2004-02-03, 03:28:00,VALID,915.318,VALID,0,VALID,93.2595,VALID,0.0339617,VALID,18.1881,VALID,102,VALID,0.971946,
2004-02-03, 03:29:00,VALID,915.311,VALID,0,VALID,93.2175,VALID,0.0169808,VALID,18.165,VALID,101,VALID,0.930556,
2004-02-03, 03:30:00,VALID,915.323,VALID,0,VALID,93.2684,VALID,0.0169808,VALID,18.1553,VALID,107,VALID,0.931868,
2004-02-03, 03:31:00,VALID,915.309,VALID,0,VALID,93.2493,VALID,0.0339617,VALID,18.139,VALID,111,VALID,1.00286,
2004-02-03, 03:32:00,VALID,915.315,VALID,0,VALID,93.2137,VALID,0,VALID,18.1297,VALID,118,VALID,1.03795,
2004-02-03, 03:33:00,VALID,915.306,VALID,0,VALID,93.6244,VALID,0.0169808,VALID,18.1394,VALID,109,VALID,0.926669,
2004-02-03, 03:34:00,VALID,915.304,VALID,0,VALID,93.7923,VALID,0,VALID,18.1267,VALID,115,VALID,0.737393,
2004-02-03, 03:35:00,VALID,915.294,VALID,0,VALID,94.0263,VALID,0.0339617,VALID,18.1071,VALID,89,VALID,0.890625,